Location: �terpigny
(49.8910°N, 2.9249°E)
Time: 09:58:41
(UTC+00:00)

Cosmos 2228 - Pass Details

Date: 24 October 2021
Orbit: 587 x 618 km, 82.5° (Epoch: 30 November)

Event Time Altitude Azimuth Distance (km) Brightness Sun altitude
Rises 18:18:33 0° 167° (SSE) 2,877 6.3 -16.6°
Reaches altitude 10° 18:20:52 10° 159° (SSE) 1,979 5.4 -16.9°
Maximum altitude 18:24:55 38° 92° (E) 958 3.5 -17.6°
Drops below altitude 10° 18:29:00 10° 24° (NNE) 1,997 5.5 -18.3°
Sets 18:31:21 0° 17° (NNE) 2,906 6.4 -18.6°
